Wind_Speed
15 15 15 14 15 15 14 14 14 14 14 14 14 13 13 12 13 13 14 14 14 14 14 15 15 15 15 15 15 15 15 15 15 15 16 16 16 16 16 16 16 17 17
17 16 15 15 15 15 15 14 14 14 14 13 13 13 13 13 13 14 14 14 15 15 14 15 15 15 15 15 15 15 15 15 15 15 15 16 16 16 17 17 17 18 18
16 16 16 17 16 16 15 15 14 14 14 14 14 13 13 14 14 15 15 15 15 15 15 15 15 15 15 15 16 16 15 15 15 15 16 16 17 17 17 17 18 18 18
15 16 16 16 16 15 15 14 15 15 15 15 15 15 14 15 15 16 16 16 15 15 15 15 15 15 15 16 17 17 16 15 15 16 16 17 17 17 17 17 17 17 18
15 15 15 15 15 15 15 15 16 16 16 16 17 17 16 16 16 17 17 17 16 15 15 16 16 16 16 16 17 18 17 17 16 16 16 17 17 18 18 18 17 18 18
16 16 16 16 16 16 16 16 16 16 17 17 17 17 17 17 18 18 18 17 17 16 16 16 16 16 16 17 18 18 18 18 17 17 16 17 17 18 18 18 19 18 18
16 17 17 17 17 17 16 16 16 16 17 17 17 17 18 18 18 17 17 16 16 17 17 16 16 16 17 18 18 18 18 19 18 17 17 18 18 18 19 19 19 19 19
17 17 16 17 18 18 17 17 17 17 17 17 17 17 17 17 17 17 17 17 17 17 17 17 17 17 18 19 19 18 18 18 18 18 18 19 19 19 20 20 20 19 19
17 17 17 18 19 19 19 18 18 18 18 18 18 17 17 18 18 18 18 18 18 17 17 17 17 18 18 18 18 18 18 18 18 18 19 19 19 20 20 19 20 20 19
18 18 18 18 18 20 20 19 19 19 19 19 19 18 18 18 19 19 19 19 18 18 19 19 19 18 18 18 18 18 19 19 18 19 19 20 20 20 19 20 20 19 19
20 19 19 19 19 20 20 20 20 20 19 19 19 19 19 19 19 19 19 19 19 19 20 20 20 20 19 19 19 19 19 19 19 19 19 19 20 20 20 20 20 20 20
22 21 21 21 21 21 21 20 20 20 19 19 19 20 20 19 19 20 20 20 20 20 21 21 20 20 19 19 19 19 19 20 20 19 19 19 19 19 20 20 21 21 21
23 22 22 22 22 22 22 21 21 21 20 20 20 20 20 20 19 19 20 20 20 20 21 22 21 21 20 20 20 20 20 20 20 20 19 19 20 20 21 21 22 21 21
25 24 24 23 22 22 22 22 22 21 21 22 21 21 20 20 19 20 20 19 19 20 21 21 21 21 20 20 20 20 20 20 21 21 21 21 21 21 22 21 21 20 20
26 26 25 24 23 24 23 23 22 22 22 22 22 22 21 20 20 20 19 19 19 20 20 20 20 20 20 20 20 20 20 21 21 21 21 21 22 22 21 21 20 20 19
26 25 25 25 24 24 24 24 23 23 23 23 23 23 22 22 21 21 21 20 20 19 19 19 19 20 21 20 20 20 20 20 20 21 22 22 22 21 20 20 20 20 20
26 25 25 25 25 25 26 25 25 24 24 24 23 23 23 23 23 22 22 21 21 20 20 20 20 20 21 22 21 21 21 20 20 21 21 21 21 20 19 19 19 20 20
25 25 25 25 25 25 25 26 25 25 25 25 24 24 24 24 24 24 23 22 22 22 22 21 21 21 21 21 21 21 21 21 21 21 22 21 20 20 20 20 21 21 21
25 25 25 25 26 25 25 25 26 25 26 25 25 25 25 25 25 25 25 23 23 22 22 22 22 22 21 21 21 22 22 22 22 22 22 22 21 21 22 22 22 22 22
24 25 25 25 25 25 25 26 26 26 26 26 25 26 26 26 26 26 25 24 23 22 22 23 22 22 22 22 22 23 23 23 23 23 23 23 23 22 23 23 23 23 23
24 24 24 25 25 24 25 25 26 26 26 26 26 27 27 27 26 26 25 25 24 24 24 23 23 23 23 23 24 24 24 23 23 23 23 23 24 24 23 24 24 23 23
24 24 24 24 23 24 24 25 26 26 26 27 27 27 27 27 26 26 26 26 26 25 24 24 24 23 23 24 23 23 23 23 23 22 23 23 24 24 24 23 23 24 24
22 23 23 23 23 23 23 25 26 26 26 27 27 27 27 27 28 27 27 27 27 26 25 25 25 25 25 25 25 24 25 25 25 25 24 24 24 24 24 24 24 24 25
22 22 23 24 24 24 24 24 25 26 26 27 26 27 27 27 28 28 28 28 28 28 28 27 26 26 26 27 26 26 26 26 25 25 25 25 25 24 24 24 25 25 25
22 22 23 23 24 24 24 24 25 25 26 26 27 27 27 28 28 29 29 29 29 29 29 29 28 27 28 28 27 27 26 26 26 26 26 26 26 25 25 25 25 25 25
22 22 23 23 24 24 24 24 25 25 26 27 28 28 28 28 28 29 29 29 29 29 28 28 28 28 28 28 27 27 26 26 26 26 26 26 26 26 26 26 26 26 26
Wind_Direction
260 259 257 256 256 252 250 251 255 258 260 262 267 270 270 271 270 271 272 272 274 275 276 277 275 272 270 269 272 272 272 273 275 274 276 277 274 274 271 269 271 274 277
261 256 255 254 252 250 250 250 254 257 259 262 268 271 272 272 271 272 271 271 272 274 276 276 274 271 269 269 270 271 272 273 273 273 275 276 276 275 273 273 273 275 278
258 255 253 252 252 249 246 249 254 256 260 265 267 269 272 272 272 274 273 272 272 275 277 278 274 270 266 267 270 272 271 271 272 274 275 278 278 277 278 278 278 279 281
254 250 248 248 247 249 249 252 256 257 260 265 266 268 270 273 273 275 273 272 273 274 274 274 274 271 267 267 268 270 270 272 273 274 277 279 279 279 281 280 282 283 282
252 245 244 244 245 249 250 254 258 258 260 263 268 269 270 271 274 275 273 272 273 274 274 274 275 272 269 268 270 270 270 272 275 276 279 280 279 280 282 280 282 285 286
249 246 248 248 248 250 251 255 259 258 262 267 271 270 269 270 272 274 271 269 270 271 274 275 274 273 271 270 271 271 271 273 277 278 280 281 281 283 282 280 282 283 285
253 251 251 251 250 250 253 258 260 262 265 267 270 270 271 272 274 276 272 273 269 270 270 273 274 272 271 271 271 271 272 273 273 276 280 281 281 282 282 282 283 283 284
259 257 255 253 252 252 255 257 259 261 264 267 269 271 272 273 274 275 274 276 273 270 269 270 272 274 274 274 273 273 274 275 273 276 280 282 282 282 282 282 282 284 285
258 255 255 256 255 255 256 258 260 263 266 268 270 272 272 271 272 273 273 276 275 274 270 270 272 274 276 276 275 276 276 277 274 275 278 282 285 285 282 281 280 282 282
257 256 255 256 256 256 256 258 260 264 266 267 267 269 270 270 273 275 275 275 274 274 272 271 272 273 275 277 277 276 276 276 274 277 279 280 283 284 281 281 280 280 281
256 256 253 254 255 255 256 257 260 264 267 268 268 269 269 269 273 275 275 274 275 274 274 273 272 272 274 274 274 275 275 274 274 277 279 280 281 283 283 283 282 283 283
254 255 254 252 254 255 256 258 261 264 267 268 270 270 269 269 271 273 274 275 276 275 274 273 271 270 272 272 271 274 276 274 272 274 278 278 279 281 283 283 282 283 283
253 254 256 255 253 255 256 259 262 264 266 269 271 270 269 271 271 272 275 276 275 275 273 271 269 268 269 269 269 271 274 274 270 271 275 276 279 281 283 283 281 281 282
253 253 255 256 256 257 258 260 263 265 265 269 272 269 269 268 268 271 276 277 275 274 273 269 267 267 268 269 270 270 272 272 272 273 273 275 278 280 282 282 281 281 282
250 250 251 252 253 255 257 260 262 264 265 266 267 267 266 266 267 270 275 277 276 274 273 271 268 268 269 271 271 271 272 273 274 274 274 275 277 279 281 282 282 283 284
247 247 250 251 252 253 256 259 262 265 266 266 266 265 265 265 266 269 271 274 275 273 273 273 270 268 269 270 270 270 271 272 273 275 276 276 277 278 279 281 281 282 282
246 247 249 250 251 254 256 257 260 261 263 262 263 265 265 265 266 269 271 272 274 274 273 274 274 272 272 272 272 272 273 273 273 275 278 278 276 275 276 278 281 283 282
248 249 250 252 255 256 255 256 258 259 260 260 262 264 264 264 265 268 271 272 272 274 273 273 275 274 273 274 273 274 276 275 275 275 276 277 277 275 274 276 280 282 284
249 249 251 253 255 256 255 256 257 258 259 260 260 262 264 265 266 268 271 273 272 272 272 274 274 274 274 272 272 275 276 276 275 275 275 275 276 277 275 275 278 280 282
250 250 252 253 254 256 258 258 258 258 259 259 261 263 264 265 267 268 270 272 273 272 272 273 273 274 273 271 273 274 276 276 276 274 274 274 274 275 276 275 276 277 280
251 251 252 253 255 259 261 260 258 257 258 260 261 263 264 265 266 268 269 269 270 270 270 272 272 275 273 272 274 275 275 276 277 275 275 277 275 275 276 277 277 277 280
253 253 254 255 258 262 262 260 258 257 258 260 261 262 263 263 263 265 266 268 270 269 269 269 271 273 273 273 275 275 274 275 277 277 278 278 277 276 276 276 277 278 280
254 255 257 258 260 263 262 261 261 260 260 261 261 261 261 262 264 266 267 268 268 268 270 270 271 271 273 274 274 275 274 275 276 277 278 277 277 275 275 275 276 280 282
256 256 257 258 259 262 264 265 264 263 262 262 262 263 263 264 266 267 268 269 268 268 269 270 271 272 272 273 274 274 274 273 273 273 274 276 277 276 275 276 278 281 282
257 257 259 260 261 262 264 265 264 263 265 265 264 264 265 266 267 267 268 268 269 269 269 269 271 273 272 272 272 273 273 272 270 271 273 274 275 275 275 276 278 279 281
257 258 260 261 263 263 264 265 266 266 267 267 266 265 266 267 268 268 269 270 270 270 268 269 269 270 271 271 271 272 272 271 270 271 272 273 274 274 274 275 276 278 279
Height
5801 5802 5803 5804 5805 5806 5807 5808 5808 5809 5809 5810 5810 5810 5811 5811 5811 5811 5811 5810 5810 5809 5808 5808 5808 5808 5808 5808 5808 5808 5808 5808 5808 5808 5807 5807 5807 5807 5806 5806 5806 5805 5805
5796 5797 5799 5800 5801 5802 5803 5803 5804 5805 5806 5807 5807 5807 5807 5807 5807 5807 5807 5806 5806 5805 5805 5804 5804 5803 5803 5803 5804 5804 5804 5804 5804 5803 5803 5803 5802 5802 5802 5802 5801 5800 5800
5792 5793 5794 5795 5796 5797 5799 5799 5800 5801 5802 5803 5803 5803 5803 5803 5803 5803 5803 5802 5802 5801 5801 5800 5800 5799 5799 5799 5799 5799 5799 5799 5799 5799 5799 5798 5798 5798 5797 5797 5796 5795 5795
5787 5789 5790 5791 5792 5793 5794 5795 5796 5798 5798 5799 5800 5800 5799 5799 5799 5799 5798 5798 5798 5797 5796 5796 5796 5795 5795 5795 5795 5795 5795 5795 5795 5794 5794 5794 5793 5793 5793 5792 5792 5791 5790
5783 5784 5785 5786 5788 5789 5790 5791 5792 5793 5794 5795 5795 5795 5795 5795 5795 5794 5794 5793 5793 5792 5792 5791 5791 5791 5791 5791 5791 5790 5790 5790 5790 5790 5789 5789 5789 5789 5788 5788 5787 5786 5785
5778 5779 5781 5782 5783 5785 5786 5787 5788 5789 5790 5790 5790 5790 5790 5790 5790 5789 5789 5788 5788 5788 5787 5787 5786 5786 5786 5786 5786 5786 5786 5786 5786 5785 5785 5784 5784 5784 5783 5782 5782 5781 5780
5774 5775 5776 5777 5779 5780 5782 5783 5784 5784 5785 5785 5786 5785 5785 5785 5785 5784 5783 5783 5783 5783 5782 5782 5782 5782 5781 5781 5781 5780 5780 5780 5781 5781 5781 5780 5779 5779 5778 5777 5776 5775 5774
5770 5770 5771 5773 5774 5776 5777 5778 5779 5779 5780 5780 5781 5780 5780 5780 5780 5779 5779 5778 5778 5778 5777 5777 5777 5777 5776 5776 5775 5775 5775 5775 5775 5776 5776 5775 5774 5773 5772 5772 5770 5770 5769
5766 5766 5767 5768 5769 5771 5772 5773 5774 5774 5775 5775 5775 5775 5775 5775 5775 5774 5774 5774 5773 5773 5773 5772 5772 5771 5771 5770 5770 5770 5770 5770 5770 5770 5770 5769 5768 5768 5767 5766 5765 5764 5763
5760 5761 5762 5763 5764 5765 5766 5767 5768 5769 5769 5770 5770 5770 5770 5770 5770 5769 5769 5769 5768 5768 5767 5767 5767 5766 5766 5765 5765 5765 5765 5765 5765 5765 5764 5764 5763 5762 5761 5760 5759 5758 5757
5755 5756 5756 5757 5758 5759 5760 5761 5762 5763 5764 5764 5764 5765 5764 5764 5764 5764 5763 5763 5763 5762 5762 5762 5761 5761 5760 5760 5760 5760 5760 5760 5760 5759 5759 5759 5758 5757 5756 5755 5754 5753 5752
5749 5750 5751 5752 5753 5753 5755 5755 5756 5757 5758 5758 5758 5759 5759 5758 5758 5758 5758 5757 5756 5756 5756 5755 5755 5755 5755 5754 5754 5754 5754 5754 5754 5754 5754 5753 5753 5752 5751 5749 5749 5748 5747
5742 5743 5744 5745 5746 5748 5749 5750 5751 5751 5751 5752 5752 5753 5753 5753 5752 5752 5751 5750 5749 5749 5748 5749 5749 5749 5749 5749 5748 5748 5748 5748 5748 5748 5748 5747 5747 5746 5745 5744 5743 5742 5741
5734 5736 5737 5738 5739 5741 5742 5744 5745 5745 5745 5746 5746 5746 5746 5746 5746 5746 5745 5744 5743 5742 5742 5742 5743 5742 5742 5742 5742 5742 5742 5742 5742 5742 5742 5741 5741 5740 5739 5738 5737 5736 5735
5726 5728 5730 5731 5733 5734 5735 5737 5738 5738 5739 5739 5740 5740 5740 5740 5740 5740 5739 5738 5737 5737 5736 5737 5737 5737 5737 5736 5736 5736 5736 5736 5736 5736 5735 5735 5734 5733 5732 5731 5730 5730 5729
5718 5720 5722 5723 5725 5727 5728 5730 5730 5731 5732 5732 5733 5733 5733 5734 5734 5734 5734 5733 5732 5732 5732 5731 5731 5731 5731 5731 5730 5730 5730 5730 5729 5729 5729 5728 5728 5727 5726 5726 5725 5724 5723
5710 5712 5714 5715 5717 5719 5720 5722 5723 5724 5725 5725 5726 5726 5727 5728 5728 5728 5728 5728 5727 5727 5726 5726 5725 5725 5725 5724 5724 5724 5723 5723 5723 5723 5722 5722 5721 5720 5720 5720 5719 5718 5718
5702 5704 5706 5707 5709 5711 5712 5714 5715 5716 5718 5719 5719 5720 5720 5720 5721 5721 5721 5721 5721 5720 5720 5719 5719 5719 5718 5718 5717 5717 5717 5716 5716 5716 5716 5715 5715 5714 5714 5713 5713 5712 5712
5694 5696 5698 5700 5702 5703 5704 5706 5707 5709 5710 5711 5712 5712 5713 5713 5713 5714 5714 5714 5714 5713 5713 5713 5712 5712 5711 5711 5711 5710 5710 5709 5709 5709 5709 5709 5708 5708 5707 5707 5706 5706 5705
5687 5689 5690 5692 5693 5695 5697 5698 5699 5701 5702 5703 5704 5704 5705 5706 5706 5706 5706 5706 5706 5706 5706 5706 5705 5705 5705 5704 5704 5703 5703 5703 5702 5702 5702 5701 5701 5701 5700 5700 5699 5699 5698
5679 5681 5683 5685 5686 5687 5689 5690 5691 5692 5694 5695 5696 5696 5697 5698 5698 5698 5699 5699 5698 5698 5698 5698 5698 5698 5698 5697 5697 5696 5696 5695 5695 5694 5694 5694 5694 5693 5693 5692 5692 5691 5691
5671 5673 5675 5677 5678 5679 5680 5681 5682 5684 5685 5686 5687 5688 5688 5689 5689 5690 5690 5690 5690 5690 5690 5690 5690 5690 5690 5690 5689 5689 5689 5688 5688 5687 5687 5686 5686 5686 5686 5685 5684 5684 5683
5664 5665 5667 5669 5670 5671 5672 5673 5674 5675 5677 5678 5678 5679 5680 5680 5681 5681 5681 5682 5682 5682 5682 5682 5682 5682 5682 5682 5681 5681 5681 5680 5680 5680 5679 5679 5679 5678 5678 5678 5677 5676 5675
5656 5658 5659 5661 5662 5663 5664 5665 5666 5667 5669 5669 5670 5670 5671 5671 5672 5672 5672 5672 5673 5673 5673 5673 5673 5674 5673 5673 5673 5672 5672 5672 5672 5671 5671 5671 5671 5670 5670 5670 5669 5668 5667
5649 5650 5652 5653 5654 5656 5657 5658 5658 5659 5660 5661 5661 5662 5662 5663 5663 5663 5663 5663 5663 5664 5664 5664 5664 5664 5664 5664 5664 5664 5663 5663 5663 5663 5663 5663 5663 5662 5662 5661 5661 5660 5660
5641 5643 5644 5645 5647 5648 5649 5650 5651 5651 5652 5652 5653 5653 5653 5653 5653 5654 5654 5654 5654 5654 5654 5654 5654 5655 5655 5655 5655 5655 5654 5654 5654 5654 5654 5654 5654 5654 5653 5653 5652 5652 5651